Location: Newark
(46.7000°N, 60.6000°W)
Time: 21:30:09
(UTC+00:00)

Vanguard 1 Rocket - Pass Details

Date: 06 November 2020
Orbit: 656 x 4221 km, 34.3° (Epoch: 30 November)

Event Time Altitude Azimuth Distance (km) Brightness Sun altitude
Rises 10:51:48 0° 222° (SW) 5,858 11.3 -1.0°
Reaches altitude 10° 10:57:31 10° 208° (SSW) 4,138 10.7 -0.1°
Maximum altitude 11:04:06 20° 167° (SSE) 2,628 10.3 1.0°
Drops below altitude 10° 11:08:42 10° 123° (ESE) 2,754 12.2 1.7°
Sets 11:11:32 0° 104° (ESE) 3,406 12.5 2.1°
